CZ-3B R/B (45808 NORAD) Tracking and Keplerian Element Data

This shows tracking and keplerian element data for the satellite.

Feedback or suggestion? Click here.




ElementValue
Catalog45808
NameCZ-3B R/B
Epoch Orbit67
Epoch Day202.40056154
Epoch Year2020
RAAN283.9615
Inclination28.2987
Eccentricity0.7214949
Argument of Perigee196.6089
Mean Anonmoly113.7022
Mean Motion2.39960355
Decay Rate0.00028933
L11 45808U 20040B 20202.40056154 .00028933 11025-5 15037-2 0 9999
L22 45808 28.2987 283.9615 7214949 196.6089 113.7022 2.39960355 673



Live tracking and technical data element details for CZ-3B R/B (NORAD 45808). CZ-3B R/B can be tracked NOW for your location showing map with azimuth and elevation plus other details from your city location.







IsCatalogInMostPopularTable: catalog: 45808, numindb: 175
Update: records affected: 1



GetName: 45808 CZ-3B R/B

Hit Count: updated at: Sat, 10 Jun 2023 23:41:23 GMT